Location: Newark
(44.1667°N, 8.2500°E)
Time: 22:26:09
(UTC+00:00)

Vanguard 2 - Pass Details

Date: 14 December 2019
Orbit: 553 x 2938 km, 32.9° (Epoch: 21 January)

Event Time Altitude Azimuth Distance (km) Brightness Sun altitude
Exits shadow 00:57:23 33° 113° (ESE) 4,143 11.1 -61.2°
Drops below altitude 10° 01:05:52 10° 97° (E) 5,713 12.1 -60.0°
Sets 01:10:18 0° 93° (E) 6,616 12.6 -59.4°
